This is the latest recevied weather packets stored in our database for station/object KG5WBN. If no packets are shown the sender has not sent any weather packets the latest 10 day(s).
| Time | Temp. | Humidity | Pressure | Rain* | Wind** | Luminosity | Snow |
|---|---|---|---|---|---|---|---|
| 1787956041 | 33.89° C | 43% | 1013.2 hPa | 0 mm | - | 236 W/m² | - |
| 1787955736 | 33.89° C | 43% | 1012.9 hPa | 0 mm | - | 261 W/m² | - |
| 1787955432 | 33.89° C | 42% | 1012.9 hPa | 0 mm | - | 267 W/m² | - |
| 1787955130 | 35° C | 42% | 1013.5 hPa | 0 mm | - | 275 W/m² | - |
| 1787954827 | 34.44° C | 42% | 1013.2 hPa | 0 mm | - | 278 W/m² | - |
| 1787954522 | 33.89° C | 43% | 1013.2 hPa | 0 mm | - | 296 W/m² | - |
| 1787954221 | 34.44° C | 42% | 1013.2 hPa | 0 mm | - | 307 W/m² | - |
| 1787953916 | 33.89° C | 43% | 1013.5 hPa | 0 mm | - | 314 W/m² | - |
| 1787953615 | 35° C | 42% | 1013.5 hPa | 0 mm | - | 320 W/m² | - |
| 1787953310 | 33.89° C | 42% | 1013.5 hPa | 0 mm | - | 323 W/m² | - |
| 1787953008 | 34.44° C | 42% | 1013.5 hPa | 0 mm | - | 330 W/m² | - |
| 1787952708 | 33.89° C | 42% | 1013.9 hPa | 0 mm | - | 326 W/m² | - |
| 1787952408 | 34.44° C | 42% | 1013.9 hPa | 0 mm | - | 324 W/m² | - |
| 1787952104 | 33.89° C | 43% | 1013.9 hPa | 0 mm | - | 265 W/m² | - |
| 1787951803 | 34.44° C | 42% | 1013.9 hPa | 0 mm | - | 323 W/m² | - |
| 1787951498 | 33.89° C | 43% | 1014.2 hPa | 0 mm | - | 331 W/m² | - |
| 1787951195 | 33.89° C | 42% | 1014.2 hPa | 0 mm | - | 328 W/m² | - |
| 1787950890 | 34.44° C | 42% | 1014.2 hPa | 0 mm | - | 347 W/m² | - |
| 1787950585 | 34.44° C | 42% | 1014.2 hPa | 0 mm | - | 347 W/m² | - |
| 1787950281 | 34.44° C | 42% | 1014.2 hPa | 0 mm | - | 351 W/m² | - |
| 1787949978 | 34.44° C | 42% | 1014.2 hPa | 0 mm | - | 363 W/m² | - |
| 1787949673 | 34.44° C | 42% | 1014.6 hPa | 0 mm | - | 353 W/m² | - |
| 1787949372 | 34.44° C | 42% | 1014.6 hPa | 0 mm | - | 353 W/m² | - |
| 1787949072 | 33.33° C | 43% | 1014.6 hPa | 0 mm | - | 357 W/m² | - |
| 1787948768 | 33.33° C | 43% | 1014.6 hPa | 0 mm | - | 362 W/m² | - |
* Rain latest hour (hover to see other rain measurements)
** Current wind speed in m/s (hover to see current wind gust speed)